Home   Weather   Bruck an der Leitha   Past weeks

Flag for Austria Past Weather in Bruck an der Leitha, Lower Austria, Austria — Yesterday and Last 2 Weeks

Now
70 °F

Passing clouds.


Feels Like: 70 °F
Forecast: 65 / 83 °F
Wind: N/A

Location: Wien / Schwechat-Flughafen

Current Time: Jul 23, 2017 at 1:12:06 am

Latest Report: Jul 23, 2017 at 12:00 am


Visibility: 22 mi

Pressure: 29.94 "Hg

Humidity: 83%

Dew Point: 64 °F

Location of Bruck an der LeithaLocation

Past Weather in Bruck an der Leitha — Graph

°F

Bruck an der Leitha Temperature Yesterday

Maximum temperature yesterday: 87 °F (at 6:00 pm)
Minimum temperature yesterday: 67 °F (at 4:00 am)
Average temperature yesterday: 77 °F

High & Low Weather Summary for the Past Weeks

 TemperatureHumidityPressure
High91 °F (Jul 20, 5:00 pm)94% (Jul 21, 2:00 am)30.24 "Hg (Jul 21, 2:00 am)
Low50 °F (Jul 14, 4:00 am)29% (Jul 18, 5:00 pm)29.74 "Hg (Jul 10, 4:00 pm)
Average72 °F61%29.98 "Hg
* Reported Jul 7 11:00 pm — Jul 22 11:00 pm, Bruck an der Leitha. Weather by CustomWeather, © 2017

Note: Actual official high and low records may vary slightly from our data, if they occured in-between our weather recording intervals... More about our weather records

Advertising

Bruck an der Leitha Weather History for the Previous 24 Hours

Scroll right to see more
 ConditionsComfort  
Time TempWeatherWind HumidityBarometerVisibility
11:00 pm
Sat, Jul 22
71 °FPassing clouds.N/A79%29.95 "Hg28 mi
10:00 pm73 °FPassing clouds.N/A74%29.95 "Hg12 mi
9:00 pm76 °FPassing clouds.N/A67%29.93 "Hg25 mi
8:00 pm82 °FScattered clouds.5 mph51%29.90 "Hg28 mi
7:00 pm83 °FScattered clouds.7 mph53%29.89 "Hg19 mi
6:00 pm87 °FOvercast.5 mph43%29.88 "Hg14 mi
5:00 pm87 °FOvercast.6 mph42%29.88 "Hg17 mi
4:00 pm85 °FScattered clouds.N/A47%29.90 "Hg22 mi
3:00 pm86 °FScattered clouds.N/A44%29.89 "Hg14 mi
2:00 pm85 °FScattered clouds.N/A48%29.90 "Hg14 mi
1:00 pm84 °FScattered clouds.N/A51%29.92 "Hg14 mi
12:00 pm82 °FScattered clouds.3 mph54%29.93 "Hg12 mi
11:00 am79 °FScattered clouds.N/A56%29.93 "Hg18 mi
10:00 am77 °FPartly sunny.N/A57%29.93 "Hg15 mi
9:00 am73 °FPartly sunny.5 mph63%29.93 "Hg22 mi
8:00 am74 °FOvercast.3 mph62%29.92 "Hg22 mi
7:00 am70 °FPartly sunny.5 mph70%29.92 "Hg22 mi
6:00 am70 °FPartly sunny.N/A68%29.90 "Hg22 mi
5:00 am69 °FPassing clouds.3 mph68%29.90 "Hg28 mi
4:00 am67 °FPassing clouds.N/A75%29.91 "Hg28 mi
3:00 am69 °FPassing clouds.5 mph72%29.91 "Hg25 mi
2:00 am69 °FPassing clouds.N/A73%29.91 "Hg28 mi
1:00 am70 °FPassing clouds.N/A73%29.92 "Hg25 mi
Weather by CustomWeather, © 2017

See weather overviewHow to use our weather pages